| time (UTC) | temp F | wind direction | speed knots | gust knots | rain 1hr in | rain 24hr in | rain mn in | humidity % | barometer mb |
| 20260507040005 | 68 | 26 | 0.0 | 0.0 | 0.00 | 0.00 | 0.00 | 86 | 983.3 |
| 20260507034507 | 68 | 26 | 0.0 | 0.0 | 0.00 | 0.00 | 0.00 | 85 | 983.5 |
| 20260507033010 | 68 | 26 | 0.0 | 0.0 | 0.00 | 0.00 | 0.00 | 85 | 983.5 |
| 20260507031502 | 68 | 26 | 0.0 | 0.0 | 0.00 | 0.00 | 0.00 | 85 | 983.4 |
| 20260507030004 | 68 | 26 | 0.0 | 0.0 | 0.00 | 0.00 | 0.00 | 84 | 983.4 |
| 20260507024503 | 69 | 26 | 0.0 | 0.0 | 0.00 | 0.00 | 0.00 | 83 | 983.4 |
| 20260507023006 | 69 | 26 | 0.0 | 0.0 | 0.00 | 0.00 | 0.00 | 83 | 983.3 |
| 20260507021502 | 69 | 26 | 0.0 | 0.0 | 0.00 | 0.00 | 0.00 | 83 | 983.2 |
| 20260507020007 | 69 | 26 | 0.0 | 0.0 | 0.00 | 0.00 | 0.00 | 83 | 983.1 |
| 20260507014503 | 69 | 26 | 0.0 | 0.0 | 0.00 | 0.00 | 0.00 | 82 | 983.3 |
| 20260507013003 | 70 | 26 | 0.0 | 0.0 | 0.00 | 0.00 | 0.00 | 82 | 983.1 |
| 20260507011505 | 70 | 26 | 0.0 | 0.0 | 0.00 | 0.00 | 0.00 | 82 | 983.0 |
| 20260507010006 | 70 | 26 | 0.0 | 0.0 | 0.00 | 0.00 | 0.00 | 81 | 982.9 |
| 20260507004502 | 70 | 26 | 0.0 | 0.0 | 0.00 | 0.00 | 0.00 | 81 | 982.8 |
| 20260507003003 | 71 | 26 | 0.0 | 0.0 | 0.00 | 0.00 | 0.00 | 80 | 982.5 |
| 20260507001502 | 71 | 26 | 0.0 | 0.0 | 0.00 | 0.00 | 0.00 | 80 | 982.3 |
| 20260507000007 | 71 | 26 | 0.0 | 0.0 | 0.00 | 0.00 | 0.00 | 79 | 982.2 |
| 20260506234502 | 71 | 26 | 0.0 | 0.0 | 0.00 | 0.00 | 0.00 | 79 | 981.8 |
| 20260506233003 | 72 | 26 | 0.0 | 0.0 | 0.00 | 0.00 | 0.00 | 78 | 981.6 |
| 20260506231506 | 72 | 26 | 0.0 | 0.0 | 0.00 | 0.00 | 0.00 | 77 | 981.5 |
| 20260506230005 | 73 | 26 | 0.0 | 0.0 | 0.00 | 0.00 | 0.00 | 76 | 981.4 |
| 20260506224503 | 74 | 26 | 0.0 | 0.0 | 0.00 | 0.00 | 0.00 | 75 | 981.4 |
| 20260506223002 | 75 | 26 | 0.0 | 0.0 | 0.00 | 0.00 | 0.00 | 73 | 981.5 |
| 20260506221507 | 76 | 26 | 0.0 | 0.0 | 0.00 | 0.00 | 0.00 | 71 | 981.4 |
| 20260506220015 | 78 | 26 | 0.0 | 0.0 | 0.00 | 0.00 | 0.00 | 69 | 981.5 |
| 20260506214505 | 79 | 26 | 0.0 | 0.0 | 0.00 | 0.00 | 0.00 | 68 | 981.1 |
| 20260506213003 | 80 | 26 | 0.0 | 0.0 | 0.00 | 0.00 | 0.00 | 67 | 981.0 |
| 20260506211508 | 81 | 26 | 0.0 | 0.0 | 0.00 | 0.00 | 0.00 | 66 | 980.9 |
| 20260506210011 | 81 | 26 | 0.0 | 0.0 | 0.00 | 0.00 | 0.00 | 65 | 980.8 |
| 20260506204503 | 82 | 26 | 0.0 | 0.0 | 0.00 | 0.00 | 0.00 | 64 | 981.0 |
| 20260506203002 | 83 | 26 | 0.0 | 0.0 | 0.00 | 0.00 | 0.00 | 63 | 981.1 |
| 20260506201502 | 83 | 26 | 0.0 | 0.0 | 0.00 | 0.00 | 0.00 | 62 | 980.9 |
| 20260506200005 | 84 | 26 | 0.0 | 0.0 | 0.00 | 0.00 | 0.00 | 61 | 981.2 |
| 20260506194608 | 84 | 26 | 0.0 | 0.0 | 0.00 | 0.00 | 0.00 | 61 | 981.2 |
| 20260506193116 | 85 | 26 | 0.0 | 0.0 | 0.00 | 0.00 | 0.00 | 60 | 981.3 |
| 20260506191509 | 84 | 26 | 0.0 | 0.0 | 0.00 | 0.00 | 0.00 | 61 | 981.4 |
| 20260506190022 | 83 | 26 | 0.0 | 0.0 | 0.00 | 0.00 | 0.00 | 62 | 981.5 |
| 20260506174502 | 84 | 15 | 0.0 | 0.0 | 0.00 | 0.00 | 0.00 | 61 | 982.0 |
| 20260506173008 | 84 | 15 | 0.0 | 0.0 | 0.00 | 0.00 | 0.00 | 62 | 982.2 |
| 20260506171502 | 84 | 15 | 0.0 | 0.0 | 0.00 | 0.00 | 0.00 | 62 | 982.4 |
| 20260506170006 | 85 | 15 | 0.0 | 0.0 | 0.00 | 0.00 | 0.00 | 61 | 982.6 |
| 20260506164602 | 85 | 15 | 0.0 | 0.0 | 0.00 | 0.00 | 0.00 | 61 | 982.3 |
| 20260506163009 | 84 | 15 | 0.0 | 0.0 | 0.00 | 0.00 | 0.00 | 62 | 982.4 |
| 20260506161502 | 84 | 15 | 0.0 | 0.0 | 0.00 | 0.00 | 0.00 | 61 | 982.7 |
| 20260506160006 | 84 | 15 | 0.0 | 0.0 | 0.00 | 0.00 | 0.00 | 63 | 982.9 |
| 20260506154501 | 83 | 15 | 0.0 | 0.0 | 0.00 | 0.00 | 0.00 | 64 | 982.9 |
| 20260506153005 | 82 | 15 | 0.0 | 0.0 | 0.00 | 0.00 | 0.00 | 65 | 983.2 |
| 20260506151501 | 81 | 15 | 0.0 | 0.0 | 0.00 | 0.00 | 0.00 | 67 | 983.1 |
| 20260506150004 | 80 | 15 | 0.0 | 0.0 | 0.00 | 0.00 | 0.00 | 70 | 983.1 |
| 20260506144515 | 78 | 15 | 0.0 | 0.0 | 0.00 | 0.00 | 0.00 | 72 | 983.4 |
| 20260506143004 | 77 | 15 | 0.0 | 0.0 | 0.00 | 0.00 | 0.00 | 74 | 983.6 |
| 20260506141502 | 75 | 15 | 0.0 | 0.0 | 0.00 | 0.00 | 0.00 | 76 | 983.5 |
| 20260506140004 | 73 | 15 | 0.0 | 0.0 | 0.00 | 0.00 | 0.00 | 79 | 983.6 |
| 20260506134502 | 71 | 15 | 0.0 | 0.0 | 0.00 | 0.00 | 0.00 | 82 | 983.9 |
| 20260506131506 | 69 | 15 | 0.0 | 0.0 | 0.00 | 0.00 | 0.00 | 86 | 983.6 |
| 20260506130111 | 68 | 15 | 0.0 | 0.0 | 0.00 | 0.00 | 0.00 | 88 | 983.5 |
| 20260506124501 | 68 | 15 | 0.0 | 0.0 | 0.00 | 0.00 | 0.00 | 89 | 983.4 |
| 20260506123002 | 67 | 15 | 0.0 | 0.0 | 0.00 | 0.00 | 0.00 | 89 | 983.3 |
| 20260506121501 | 67 | 15 | 0.0 | 0.0 | 0.00 | 0.00 | 0.00 | 89 | 983.2 |
| 20260506120006 | 67 | 15 | 0.0 | 0.0 | 0.00 | 0.00 | 0.00 | 89 | 983.1 |
| 20260506114504 | 66 | 15 | 0.0 | 0.0 | 0.00 | 0.00 | 0.00 | 88 | 982.9 |
| 20260506113003 | 66 | 15 | 0.0 | 0.0 | 0.00 | 0.00 | 0.00 | 88 | 982.8 |
| 20260506111503 | 67 | 15 | 0.0 | 0.0 | 0.00 | 0.00 | 0.00 | 88 | 982.6 |
| 20260506110004 | 67 | 15 | 0.0 | 0.0 | 0.00 | 0.00 | 0.00 | 88 | 982.3 |
| 20260506104501 | 66 | 15 | 0.0 | 0.0 | 0.00 | 0.00 | 0.00 | 88 | 982.2 |
| 20260506103001 | 66 | 15 | 0.0 | 0.0 | 0.00 | 0.00 | 0.00 | 88 | 982.0 |
| 20260506101500 | 67 | 15 | 0.0 | 0.0 | 0.00 | 0.00 | 0.00 | 88 | 982.0 |
| 20260506100004 | 67 | 15 | 0.0 | 0.0 | 0.00 | 0.00 | 0.00 | 87 | 982.1 |
| 20260506094501 | 67 | 15 | 0.0 | 0.0 | 0.00 | 0.00 | 0.00 | 88 | 982.0 |
| 20260506093001 | 67 | 15 | 0.0 | 0.0 | 0.00 | 0.00 | 0.00 | 88 | 981.9 |
| 20260506091502 | 67 | 15 | 0.0 | 0.0 | 0.00 | 0.00 | 0.00 | 88 | 981.9 |
| 20260506090008 | 67 | 15 | 0.0 | 0.0 | 0.00 | 0.00 | 0.00 | 88 | 982.0 |
| 20260506084501 | 67 | 15 | 0.0 | 0.0 | 0.00 | 0.00 | 0.00 | 88 | 982.2 |
| 20260506083001 | 67 | 15 | 0.0 | 0.0 | 0.00 | 0.00 | 0.00 | 88 | 982.1 |
| 20260506081501 | 67 | 15 | 0.0 | 0.0 | 0.00 | 0.00 | 0.00 | 88 | 982.0 |
| 20260506073001 | 67 | 15 | 0.0 | 0.0 | 0.00 | 0.00 | 0.00 | 88 | 982.0 |
| 20260506071500 | 67 | 15 | 0.0 | 0.0 | 0.00 | 0.00 | 0.00 | 87 | 982.1 |
| 20260506044502 | 68 | 15 | 0.0 | 0.0 | 0.00 | 0.00 | 0.00 | 85 | 982.6 |
| 20260506043003 | 68 | 15 | 0.0 | 0.0 | 0.00 | 0.00 | 0.00 | 85 | 982.4 |
| 20260506041502 | 68 | 15 | 0.0 | 0.0 | 0.00 | 0.00 | 0.00 | 85 | 982.4 |